Probability
0 0 0 0 0 0 0 0 0 0 0 0 1 2 2 1 0 0 0 0 0 0 0 0 0 0 0 0 0 0 0 0 0 0 0 0 0 0 0 0 0 0 0
0 0 0 0 0 0 0 0 0 0 0 0 0 1 1 0 0 0 0 0 0 0 0 0 0 0 0 0 0 0 0 0 1 1 1 1 0 0 0 0 0 0 0
0 0 0 0 0 0 0 0 0 0 0 0 0 0 0 0 0 0 0 0 0 0 0 0 0 0 0 0 0 0 0 0 1 2 2 2 1 0 0 0 0 0 0
0 0 0 0 0 0 0 0 0 0 0 0 0 0 0 0 0 0 0 0 0 0 0 0 0 0 0 0 0 0 0 0 1 3 3 2 1 0 0 0 0 0 0
0 0 0 0 0 0 0 0 0 0 0 0 0 0 0 0 0 0 0 0 0 0 0 0 0 0 0 0 0 0 0 0 1 3 3 2 1 0 0 0 0 0 0
2 2 1 1 1 2 2 2 0 0 0 0 0 0 0 0 0 0 0 0 0 0 0 0 0 0 0 0 0 0 0 0 1 2 2 1 0 0 0 0 0 0 0
6 7 12 20 25 27 25 15 4 0 0 0 0 0 0 0 0 0 0 0 0 1 2 1 0 1 2 5 10 15 12 5 1 1 1 0 0 0 0 0 0 0 0
5 8 20 36 48 58 62 46 20 6 3 3 3 2 0 1 1 1 1 5 10 17 20 19 19 20 19 23 38 51 40 16 2 0 0 0 0 0 0 0 0 0 0
1 4 10 20 31 49 71 74 54 30 14 7 7 3 5 11 15 17 23 29 35 43 50 52 54 54 50 56 72 84 69 31 6 0 0 0 0 0 0 0 0 0 0
0 0 0 0 4 16 40 61 61 48 34 22 10 3 8 20 24 35 53 61 60 63 70 75 75 73 74 79 86 91 75 38 7 0 0 0 0 0 0 0 0 0 0
0 0 0 0 0 2 10 21 27 31 41 41 23 8 7 11 15 27 47 58 59 60 63 63 62 66 70 67 63 63 52 24 4 0 0 0 0 0 0 0 0 0 0
0 0 0 0 0 0 0 0 1 7 20 32 29 13 4 2 2 6 16 26 32 35 35 31 30 39 42 31 21 20 16 7 1 0 0 0 0 0 0 0 0 0 0
0 0 0 0 0 0 0 0 0 0 3 9 12 8 4 3 1 0 1 4 7 9 9 7 7 11 11 6 1 0 0 0 0 0 0 0 0 0 0 0 0 0 0
0 0 0 0 0 0 0 0 0 0 0 0 0 1 1 1 0 0 0 0 0 0 1 1 1 0 0 0 0 0 0 0 0 0 0 0 0 0 0 0 0 0 0
0 0 0 0 0 0 0 0 0 0 0 0 0 0 0 0 0 0 0 0 0 0 0 0 0 0 0 0 0 0 0 0 0 0 0 0 0 0 0 0 0 0 0
0 0 0 0 0 0 0 0 0 0 0 0 0 0 0 0 0 0 0 0 0 0 0 0 0 0 0 0 0 0 0 0 0 0 0 0 0 0 0 0 0 0 0
0 0 0 0 0 0 0 0 0 0 0 0 0 0 0 0 0 0 0 0 0 0 0 0 0 0 0 0 0 0 0 0 0 0 0 0 0 0 2 10 18 16 10
0 0 0 0 0 0 0 0 0 0 0 0 0 0 0 0 0 0 0 0 0 0 0 0 0 0 0 0 0 0 0 0 0 0 0 0 0 0 3 23 50 54 45
0 0 0 0 0 0 0 0 0 0 0 0 0 0 0 0 0 0 0 0 0 0 0 0 0 0 0 0 0 0 0 0 0 0 0 0 0 0 2 20 49 68 73
0 0 0 0 0 0 0 0 0 0 0 0 0 0 0 0 0 0 0 0 0 0 0 0 0 0 0 0 0 0 0 0 0 0 0 0 0 0 0 6 18 37 55
0 0 0 0 0 0 0 0 0 0 0 0 0 0 0 0 0 0 0 0 0 0 0 0 0 0 0 0 0 0 0 0 0 0 0 0 0 0 0 0 0 7 15
0 0 0 0 0 0 0 0 0 0 0 0 0 0 0 0 0 0 0 0 0 0 0 0 0 0 0 0 0 0 0 0 0 0 0 0 0 0 0 0 0 0 0
0 0 0 0 0 0 0 0 0 0 0 0 0 0 0 0 0 0 0 0 0 0 0 0 0 0 0 0 0 0 0 0 0 0 0 0 0 0 0 0 0 0 0
0 0 0 0 0 0 0 0 0 0 0 0 0 0 0 0 0 0 0 0 0 0 0 0 0 0 0 0 0 0 0 0 0 0 0 0 0 0 0 0 0 0 0
0 0 0 0 0 0 0 0 0 0 0 0 0 0 0 0 0 0 0 0 0 0 0 0 0 0 0 0 0 0 0 0 0 0 0 0 0 0 0 0 0 0 0
0 0 0 0 0 0 0 0 0 0 0 0 0 0 0 0 0 0 0 0 0 0 0 0 0 0 0 0 0 0 0 0 0 0 0 0 0 0 0 0 0 0 0
Wind_Speed
3 5 9 9 8 7 5 2 2 2 1 4 3 2 2 1 1 1 2 3 3 2 2 2 3 3 3 3 3 4 3 3 3 4 4 5 7 7 7 7 6 4 7
2 4 6 7 6 6 4 1 1 2 2 4 3 0 1 2 3 4 4 4 4 3 4 4 5 4 3 3 3 3 3 3 3 3 3 3 5 6 6 7 6 5 7
3 2 1 3 2 2 2 2 2 1 2 3 2 1 3 4 3 4 5 6 7 7 7 6 6 6 5 4 4 4 4 3 3 2 3 2 1 5 6 6 6 7 8
5 5 4 2 2 3 3 3 3 3 3 3 3 3 4 5 5 5 5 6 8 10 9 8 8 6 5 5 6 5 5 4 3 2 1 1 1 3 5 6 6 7 7
7 6 5 4 3 4 5 5 5 5 4 4 4 5 6 6 6 7 8 8 9 9 9 9 9 7 6 6 6 6 6 6 4 2 1 0 2 3 6 6 7 8 7
6 5 4 4 4 5 6 6 6 7 5 6 6 6 7 9 9 8 9 10 9 8 7 7 8 8 6 5 6 6 7 6 3 1 1 2 3 6 7 7 7 8 9
8 7 6 8 7 6 6 6 7 7 7 7 7 6 8 11 10 7 8 10 9 6 5 6 6 7 6 6 5 5 6 5 3 2 2 3 4 10 10 9 9 9 9
14 13 13 17 16 12 9 8 8 7 7 7 8 7 10 12 10 8 9 9 7 4 4 5 6 7 6 5 5 4 4 4 3 3 3 3 5 9 12 12 11 10 10
18 17 15 15 17 18 15 11 8 6 6 6 7 10 10 9 6 8 8 8 6 5 5 6 7 7 7 6 5 4 4 4 2 3 3 2 6 10 12 12 12 12 11
18 17 16 15 15 14 14 19 17 11 8 6 5 7 8 7 4 4 5 6 8 8 7 7 8 7 7 7 6 4 4 3 1 3 2 4 9 11 12 13 14 14 13
19 18 17 16 16 14 13 17 20 21 18 12 5 4 5 2 3 3 4 7 8 8 8 9 8 7 6 5 5 5 4 1 2 2 2 7 12 14 13 14 15 15 15
20 18 17 17 16 15 12 12 12 13 14 14 10 6 3 3 4 5 5 8 10 10 9 9 9 8 4 2 3 3 2 3 2 3 3 9 13 16 16 15 15 17 16
15 16 15 14 15 14 12 11 9 9 10 12 15 14 9 5 3 3 2 3 4 5 4 5 5 4 3 3 3 3 3 3 3 3 4 11 14 16 18 17 17 18 16
16 18 16 14 14 13 11 10 10 10 11 10 11 13 11 8 7 5 3 2 2 2 3 3 2 4 5 4 4 4 4 3 3 3 5 11 15 17 18 19 18 18 18
18 18 18 16 15 13 10 9 9 11 11 10 10 12 13 10 10 10 7 5 3 2 2 3 3 4 5 5 5 5 5 5 5 4 4 11 14 16 18 20 20 19 19
16 16 15 15 15 15 12 10 7 8 9 9 10 12 14 11 11 11 10 9 7 4 4 3 4 4 4 4 5 5 6 5 5 5 5 7 13 15 18 20 22 21 20
15 16 16 15 14 14 13 11 9 8 7 7 8 10 12 12 13 12 11 10 9 8 6 4 4 4 4 4 5 5 5 6 5 6 6 5 6 11 15 19 21 21 22
14 14 15 14 15 15 12 11 8 8 7 6 6 7 11 12 12 11 10 10 10 9 7 6 5 3 4 4 4 5 5 5 6 6 6 5 5 5 8 14 18 20 20
14 14 15 15 15 15 12 10 9 9 7 6 5 6 10 11 12 10 9 9 11 8 7 6 7 5 4 5 5 5 5 5 6 5 6 6 6 6 4 7 13 14 16
14 15 15 15 15 14 11 10 10 9 8 7 6 7 11 10 12 10 9 11 11 8 7 7 7 6 5 5 5 6 5 5 5 5 6 5 5 6 6 5 5 5 10
16 16 16 17 17 14 11 12 12 12 10 9 7 9 11 12 13 11 9 10 10 9 10 8 8 8 6 3 3 5 5 5 5 5 5 5 5 5 5 5 4 3 4
18 16 16 15 13 12 11 13 11 10 10 10 9 10 11 13 13 11 11 10 10 10 11 8 8 7 5 4 4 2 3 4 4 4 4 5 5 4 5 6 6 5 5
19 18 15 15 14 13 14 12 11 11 10 9 11 11 13 13 12 12 12 10 10 10 9 9 8 9 8 6 6 5 4 5 1 2 2 3 4 4 4 6 7 6 7
17 16 15 15 13 14 15 14 16 13 13 13 12 12 13 13 12 12 12 12 10 9 8 9 9 8 9 8 5 5 4 3 3 2 2 2 3 4 4 4 6 6 7
14 14 16 16 14 14 14 14 13 12 12 12 12 13 12 12 12 11 11 11 10 9 9 10 10 10 9 9 7 4 2 2 3 3 3 2 2 2 2 3 4 4 5
13 15 16 16 16 14 15 15 14 14 13 13 14 12 11 10 10 12 14 12 12 12 12 11 11 12 11 10 8 6 5 5 5 4 3 3 3 3 2 2 2 2 2
Wind_Direction
228 212 196 177 182 188 200 161 113 69 178 150 119 102 90 85 131 187 208 203 176 177 214 221 215 201 181 169 160 156 149 133 133 125 133 147 150 141 139 139 132 126 118
164 183 190 179 188 197 204 209 19 53 82 142 130 115 289 290 283 273 268 266 265 258 247 241 239 225 203 189 181 175 173 158 145 127 123 147 149 145 140 145 148 144 133
73 93 169 190 203 225 244 277 309 344 21 58 75 305 278 274 283 280 274 272 271 266 258 251 246 241 221 194 192 196 190 175 163 136 105 72 125 152 144 143 148 143 143
52 33 16 321 309 308 297 295 292 295 312 336 329 294 291 290 284 286 289 290 284 269 258 251 247 246 231 206 198 203 201 187 173 163 131 158 265 181 163 159 157 151 148
39 25 12 330 317 310 306 306 302 296 284 276 274 271 266 273 286 294 295 296 296 280 268 261 253 250 244 231 220 212 209 201 182 174 191 256 298 246 188 176 169 158 156
19 9 356 322 316 316 315 318 308 293 286 282 279 278 277 266 256 269 288 291 293 291 282 277 262 260 263 254 241 227 223 213 188 174 222 257 263 247 206 180 165 164 166
2 353 345 352 345 342 343 331 319 312 298 285 276 267 279 274 258 240 273 279 268 267 287 294 284 276 270 263 258 255 247 226 178 197 232 268 258 233 205 180 178 174 171
13 5 0 357 356 355 353 343 340 331 307 292 290 275 267 266 256 256 271 273 260 267 294 293 286 282 283 280 282 275 272 258 201 201 222 256 263 234 214 192 187 184 182
18 15 8 0 359 354 346 342 333 323 298 298 314 303 285 290 287 292 278 277 277 280 295 296 294 297 289 281 282 285 283 279 232 232 228 238 264 255 231 206 195 194 192
21 18 12 7 6 0 357 354 351 335 310 283 259 281 288 289 274 294 290 275 276 274 270 280 280 273 281 288 288 288 295 314 286 251 247 247 253 259 247 223 204 199 197
19 17 15 12 11 6 9 4 4 357 350 332 291 296 305 292 291 287 261 260 266 257 256 264 267 266 262 269 276 277 285 277 290 270 259 262 262 262 253 230 212 203 201
17 14 16 15 13 10 9 5 4 3 358 355 355 337 310 296 280 267 256 278 279 264 260 259 258 253 257 263 269 272 255 260 258 259 262 273 275 270 262 241 219 208 204
17 16 15 15 13 12 8 5 5 2 1 1 3 359 344 326 301 287 271 283 288 283 282 275 274 267 248 235 247 244 233 234 236 247 258 266 273 273 266 254 229 215 208
12 11 4 9 9 7 4 4 2 2 1 357 355 0 359 352 344 331 308 289 286 286 289 286 276 281 267 242 240 250 246 235 225 228 248 257 263 268 265 257 239 221 211
10 3 360 1 3 355 355 356 358 359 358 353 356 1 2 358 356 344 334 321 299 287 279 281 284 278 270 263 248 238 240 238 236 230 235 248 251 255 258 256 247 234 223
11 4 357 359 1 353 348 346 350 354 352 354 359 1 1 360 357 351 341 331 319 303 276 260 262 262 262 257 252 242 243 242 239 235 232 242 246 247 250 251 249 242 234
1 355 353 354 357 353 348 343 342 349 351 350 352 355 357 358 355 348 342 337 331 322 299 273 256 247 250 251 252 251 247 247 245 244 238 229 239 242 243 247 248 241 236
358 355 351 349 349 346 344 341 337 340 342 343 343 348 352 353 352 344 336 331 329 323 311 291 271 252 243 231 239 247 242 238 241 240 234 223 221 232 236 241 242 236 235
355 352 349 351 349 345 345 343 333 328 330 328 330 345 345 344 345 339 329 325 324 318 313 301 284 260 249 247 242 244 234 230 236 234 234 225 215 218 222 233 236 232 232
353 353 351 351 350 347 345 343 340 336 329 326 322 338 335 333 335 333 325 326 321 316 313 313 297 279 254 245 249 256 244 231 228 225 233 229 220 216 209 212 222 232 230
351 352 353 349 349 348 353 345 339 334 328 326 321 332 329 331 331 330 329 324 322 315 311 308 303 286 268 233 239 262 253 237 230 225 224 222 221 219 212 206 204 221 232
351 349 352 348 347 351 357 337 330 323 322 325 329 328 331 333 330 331 330 323 321 317 313 317 315 300 273 214 215 226 279 283 251 231 219 216 222 212 222 225 217 221 233
350 346 342 342 347 353 358 339 334 330 328 331 333 333 335 334 336 331 327 326 321 313 312 317 311 307 293 272 219 202 202 230 266 266 222 221 226 222 220 226 227 226 233
344 337 335 339 346 356 355 346 342 343 341 341 336 333 330 330 328 329 328 324 316 310 310 310 312 307 294 282 263 230 222 197 193 228 263 238 234 233 233 227 230 228 232
340 345 346 344 347 357 354 344 340 339 340 336 333 331 327 325 328 328 324 315 308 308 309 307 307 299 290 279 266 248 214 241 235 183 213 238 257 248 247 247 228 222 220
348 354 344 340 342 349 351 341 342 340 339 334 333 332 327 327 328 330 328 323 319 316 310 304 297 291 287 274 259 244 222 201 202 180 178 204 225 250 250 268 239 214 188